Location: Unspecified
(0.0000°N, 0.0000°E)
Time: 02:09:19
(UTC+01:00)

ASC 2 Rocket - Visible Passes

Search period start: 01 November 2014 00:00
Search period end: 11 November 2014 00:00
Orbit: 556 x 2349 km, 24.0° (Epoch: 30 October)

Date Brightness Start Highest point End Pass type
(mag) Time Alt. Az. Time Alt. Az. Time Alt. Az.
01 Nov 4.6 05:43:46 10° SW 05:47:22 28° SSE 05:50:58 10° E visible
01 Nov 6.2 20:08:22 10° W 20:22:25 56° SSW 20:33:28 11° SE visible
01 Nov 6.6 22:17:59 10° WSW 22:27:46 26° SSW 22:28:23 26° SSW visible
02 Nov 5.3 04:41:15 17° S 04:41:54 17° SSE 04:44:42 10° ESE visible
02 Nov 6.1 19:00:15 10° WNW 19:14:41 73° SSW 19:27:39 10° ESE visible
02 Nov 6.6 21:08:11 10° W 21:20:28 36° SSW 21:27:25 20° SSE visible
02 Nov 7.2 23:19:44 10° SW 23:22:20 14° SW 23:22:20 14° SW visible
03 Nov 3.7 05:35:06 12° SW 05:38:52 48° SSE 05:42:46 10° E visible
03 Nov 6.5 19:59:09 10° W 20:12:50 48° SSW 20:24:31 10° SE visible
03 Nov 6.7 22:09:15 10° WSW 22:18:49 23° SSW 22:21:17 22° S visible
04 Nov 4.8 04:34:04 27° SE 04:34:04 27° SE 04:37:06 10° E visible
04 Nov 6.4 18:51:00 10° WNW 19:04:56 62° SSW 19:18:15 10° SE visible
04 Nov 6.8 20:59:19 10° WSW 21:11:13 31° SSW 21:20:09 13° SSE visible
04 Nov 7.2 23:10:49 10° SW 23:15:03 16° SSW 23:15:03 16° SSW visible
05 Nov 2.9 05:27:59 27° WSW 05:30:21 85° SSE 05:34:21 10° ENE visible
05 Nov 6.8 19:50:12 10° W 20:03:20 41° SSW 20:15:09 10° SE visible
05 Nov 6.9 22:00:31 10° WSW 22:09:59 22° SSW 22:13:48 19° S visible
06 Nov 4.9 04:26:59 28° E 04:26:59 28° E 04:29:07 10° E visible
06 Nov 6.7 18:41:59 10° W 18:55:17 52° SSW 19:08:41 10° SE visible
06 Nov 7.0 20:50:37 10° WSW 21:02:05 28° SSW 21:12:00 10° SE visible
06 Nov 7.1 23:01:37 10° SW 23:07:21 17° SSW 23:07:21 17° SSW visible
07 Nov 3.1 05:20:53 47° WNW 05:21:47 57° NNW 05:25:46 10° NE visible
07 Nov 7.0 19:41:29 10° W 19:53:58 35° SSW 20:05:44 10° SE visible
07 Nov 6.9 21:51:43 10° SW 22:01:14 21° S 22:05:55 17° SSE visible
08 Nov 5.5 04:19:52 18° ENE 04:19:52 18° ENE 04:20:54 10° ENE visible
08 Nov 4.5 06:15:19 10° WNW 06:18:25 19° NNW 06:21:19 10° NNE visible
08 Nov 7.2 20:42:01 10° WSW 20:53:05 26° SSW 21:02:59 10° SE visible
08 Nov 7.0 22:52:08 10° SW 22:59:15 19° S 22:59:15 19° S visible
09 Nov 3.9 05:13:43 35° N 05:13:43 35° N 05:17:02 10° NE visible
09 Nov 7.2 19:32:58 10° WSW 19:44:45 31° SSW 19:56:19 10° SE visible
09 Nov 7.0 21:42:44 10° SW 21:52:32 22° S 21:57:38 17° SSE visible
09 Nov 7.4 23:50:57 10° SW 23:52:30 13° SW 23:52:30 13° SW visible
10 Nov 5.0 06:07:44 10° NW 06:09:49 13° NNW 06:11:46 10° N visible
10 Nov 7.2 20:33:26 10° WSW 20:44:11 25° S 20:54:07 10° SE visible
10 Nov 6.9 22:42:24 10° SW 22:50:48 22° S 22:50:48 22° S visible
